SCP
-0 -0 -0 -0 -0 -0 -0 -0 0 0 0 0 0 0 0 0 0 0 0 0 0 0 0 0 0 0 0 0 0 0 0 0 0 0 0 0 0 0 0 0 0 0 0
0 -0 -0 -0 -0 -0 -0 -0 0 0 0 0 0 0 0 0 0 0 0 0 0 0 0 0 0 0 0 0 0 0 0 0 0 0 0 0 0 0 0 0 0 0 0
0 -0 -0 -0 -0 -0 -0 -0 0 0 0 0 0 0 0 0 0 0 0 0 0 0 0 0 0 0 0 0 0 0 0 0 0 0 0 0 0 0 0 0 0 0 0
0 0 0 0 0 0 0 0 0 0 0 0 0 0 0 0 0 0 0 0 0 0 0 0 0 0 0 0 0 0 0 0 0 0 0 0 0 0 0 0 0 0 0
0 0 0 0 0 0 0 0 0 0 0 0 0 0 0 0 0 0 0 0 1 0 0 0 0 0 1 1 0 0 0 0 0 0 0 0 0 0 0 0 0 0 0
0 0 1 1 1 1 0 0 0 0 0 0 0 0 0 0 0 0 0 1 1 1 1 1 1 1 1 1 1 0 0 1 1 0 0 0 0 0 0 0 0 0 0
0 1 1 1 1 1 1 1 1 1 0 0 0 0 0 0 0 0 1 1 1 1 1 1 1 1 1 1 1 1 1 1 1 0 0 0 0 0 0 0 0 0 0
0 0 1 1 1 2 2 2 2 1 1 1 1 1 1 0 0 1 1 1 1 1 1 1 1 1 1 1 1 1 1 1 1 0 0 0 0 0 0 1 1 1 0
0 0 0 1 1 1 2 2 2 2 2 1 1 1 1 1 1 1 1 1 1 1 1 1 1 1 1 1 1 1 1 1 1 0 0 0 0 0 0 1 1 1 1
0 0 0 0 0 0 1 2 2 2 2 2 2 1 1 1 1 1 1 1 1 1 1 1 1 1 1 1 1 1 1 1 1 0 0 0 0 0 0 1 1 1 1
0 0 0 0 0 0 0 1 1 1 1 1 1 1 1 1 1 1 1 1 1 1 1 2 2 1 1 1 1 1 1 1 1 0 0 0 0 1 1 1 1 1 1
0 0 0 0 0 0 0 0 0 0 0 1 1 1 1 1 1 1 1 1 1 1 1 1 2 2 1 1 1 1 1 1 1 0 0 0 1 1 1 1 1 1 1
0 0 0 0 0 0 0 0 0 0 0 0 0 0 0 0 0 0 0 0 0 1 1 1 1 1 1 1 1 1 1 1 1 0 0 1 1 1 1 1 1 1 1
0 0 0 0 0 0 0 0 0 0 0 0 0 0 0 0 0 0 0 0 0 0 0 1 1 1 1 1 0 0 0 0 0 0 0 0 0 1 1 1 1 1 1
0 0 0 0 0 0 0 0 0 0 0 0 0 0 0 0 0 0 0 0 0 0 0 0 0 0 0 0 0 0 0 0 0 0 0 0 0 1 1 1 1 1 1
0 0 0 0 0 0 0 0 0 0 0 0 0 0 0 0 0 0 0 0 0 0 0 0 0 0 0 0 0 0 0 0 0 0 0 0 0 1 1 1 1 1 1
0 0 0 0 0 0 0 0 0 0 0 0 0 0 0 0 0 0 0 0 0 0 0 0 0 0 0 0 0 0 0 0 0 0 0 0 0 0 1 1 1 1 1
0 0 0 0 0 0 0 0 0 0 0 0 0 0 0 0 0 0 0 0 0 0 0 0 0 0 0 0 0 0 0 0 0 0 0 0 0 0 1 1 1 1 1
0 0 0 0 -0 -0 -0 -0 -0 -0 -0 -0 -0 -0 -0 0 0 0 0 0 0 0 0 0 0 0 0 0 0 0 0 0 0 0 0 0 0 0 1 1 1 2 2
-0 -0 -0 -0 -0 -0 -0 -0 -0 -0 -0 -0 -0 0 0 0 0 0 0 0 0 0 0 0 0 0 0 0 0 0 0 0 0 0 0 0 0 0 1 1 1 2 2
-0 -0 -0 -0 0 0 0 0 -0 -0 -0 0 0 0 0 0 0 0 0 0 0 0 0 0 0 0 0 0 0 0 0 0 0 0 0 0 0 0 1 1 1 1 2
-0 0 0 0 0 0 0 0 0 0 0 0 0 0 0 0 0 0 0 0 0 0 0 0 0 0 0 0 0 0 0 0 0 0 0 0 0 0 1 1 1 1 1
-0 0 0 0 0 0 0 0 0 0 0 0 0 0 0 0 0 0 0 0 0 0 0 0 0 0 0 0 0 0 0 0 0 0 0 0 0 0 0 1 1 1 1
0 0 0 0 0 0 0 0 0 0 0 0 0 0 0 0 0 0 0 0 0 0 0 0 0 0 0 0 0 0 0 0 0 0 0 0 0 0 0 0 0 0 0
0 0 0 0 0 0 0 0 0 0 0 0 0 0 0 0 0 0 0 0 0 0 0 0 0 0 0 0 0 0 0 0 0 0 0 0 0 0 0 0 0 0 0
0 0 0 0 0 0 0 0 0 0 0 0 0 0 0 0 0 0 0 0 0 0 0 0 0 0 0 0 0 0 0 0 0 0 0 0 0 0 0 0 0 0 0
Wind_Speed
4 5 9 9 8 7 5 4 2 1 2 3 3 3 3 2 3 3 2 1 1 1 1 1 2 2 2 3 3 3 3 4 4 4 5 7 9 9 8 8 7 5 7
3 5 10 9 8 7 6 4 3 1 1 2 2 1 1 1 2 2 2 3 4 4 4 4 3 3 2 3 3 3 4 4 4 5 5 5 7 8 9 9 8 5 7
3 3 4 7 6 5 5 4 3 3 1 1 1 2 2 3 4 5 5 6 7 7 7 6 6 5 4 3 4 4 5 5 4 4 4 3 3 7 8 8 8 8 8
4 2 1 3 4 5 5 5 5 5 4 3 3 4 4 5 6 6 7 8 8 9 9 9 7 6 5 4 4 5 5 5 5 4 2 2 2 6 8 8 8 8 8
6 3 2 3 4 5 5 6 6 6 5 5 6 5 6 6 7 7 8 10 10 9 10 9 8 7 5 4 5 5 6 6 6 4 2 2 2 6 8 8 8 8 8
8 7 6 5 5 5 6 6 6 6 7 7 7 7 7 8 8 8 8 10 10 7 6 7 6 6 5 4 5 6 6 6 5 3 3 2 3 7 9 9 8 8 8
12 11 11 12 8 6 6 7 7 7 7 8 8 8 8 9 10 9 8 8 8 7 5 5 6 6 5 4 5 6 6 5 4 3 3 3 5 10 11 11 10 10 9
18 16 16 21 19 14 9 7 7 7 8 9 9 9 10 10 10 10 10 9 8 7 6 5 5 5 5 4 5 6 5 4 3 4 4 4 7 12 13 12 12 11 10
21 20 18 17 18 19 17 13 10 9 9 10 10 10 11 11 11 11 10 9 8 8 8 7 6 5 5 5 5 5 5 4 1 2 4 3 7 12 14 14 13 12 11
22 21 20 19 18 16 14 19 19 16 14 13 11 10 10 10 10 10 9 9 9 9 8 8 8 7 6 5 4 4 5 4 1 2 2 4 8 12 14 15 15 14 13
23 20 19 20 19 18 15 19 20 20 21 18 13 13 10 5 5 5 7 9 11 11 10 10 10 8 7 5 5 5 4 2 2 2 3 7 10 12 15 16 16 15 14
21 19 18 18 18 17 15 13 11 12 13 14 13 13 8 6 4 5 6 9 11 11 11 12 11 9 6 2 3 4 2 3 3 3 4 10 12 13 14 16 17 16 15
11 16 17 16 16 16 12 11 9 8 9 11 14 15 11 8 6 5 3 4 5 7 6 7 6 4 3 3 2 2 3 3 2 3 4 10 13 14 14 16 17 17 16
15 18 16 16 16 14 11 10 10 9 9 9 11 14 11 8 8 7 5 4 3 3 4 4 3 4 4 4 4 4 4 3 3 3 5 11 13 15 16 17 17 17 17
18 19 18 16 17 15 11 9 10 9 9 9 9 11 12 9 9 9 6 5 5 3 3 3 4 4 4 5 4 5 5 5 5 5 4 10 12 15 17 18 19 18 18
17 17 17 15 16 15 13 10 7 7 7 7 8 11 12 9 9 10 9 7 6 5 4 4 4 4 4 3 4 5 5 5 5 6 5 7 12 15 17 19 20 19 19
14 14 16 16 16 16 13 12 9 7 7 6 7 9 11 10 10 10 9 9 8 7 6 4 4 3 3 3 5 5 5 5 5 6 6 5 6 11 16 19 20 20 19
12 14 15 16 15 14 12 11 9 8 8 7 7 7 9 11 11 10 9 8 9 9 6 5 4 3 4 4 4 5 5 5 6 7 6 5 5 5 9 16 19 20 20
12 13 15 15 15 15 13 10 9 8 8 7 7 7 10 10 11 9 8 8 10 8 7 7 5 4 5 5 5 5 5 5 6 6 6 7 7 6 6 9 15 17 18
12 13 13 15 15 14 11 9 8 8 7 7 7 8 12 11 12 10 8 9 10 8 8 7 8 6 5 5 5 5 5 5 5 5 6 6 6 7 7 7 6 8 15
16 17 16 17 16 14 12 12 12 11 10 9 7 11 13 13 13 11 9 9 9 9 9 10 9 9 6 4 3 4 4 5 6 5 5 5 6 7 7 7 6 5 5
14 15 15 15 14 14 12 11 11 11 10 10 10 11 12 14 14 12 11 10 10 10 11 10 9 7 5 4 4 3 3 3 4 5 4 5 6 5 6 7 7 7 6
15 17 16 16 15 14 15 11 12 10 11 11 13 12 13 16 15 13 12 10 10 9 9 11 10 10 8 6 6 5 4 6 3 2 3 3 4 5 6 6 8 8 7
16 15 16 16 16 15 15 14 16 13 13 14 12 12 15 15 15 14 13 11 10 9 11 11 11 9 10 9 6 6 4 4 4 2 2 1 2 4 5 5 6 7 7
15 14 14 16 16 16 16 15 15 14 13 12 13 14 14 12 12 13 12 11 10 10 11 12 13 12 9 10 7 5 4 2 2 4 3 2 1 2 2 4 4 5 6
12 13 15 16 16 16 16 15 16 17 17 18 17 16 14 12 11 12 14 11 10 10 11 12 12 13 11 11 8 6 5 5 5 4 4 3 3 2 1 1 2 3 4
Wind_Direction
229 217 211 183 181 181 182 183 175 160 166 146 129 115 97 81 70 62 49 27 12 360 242 187 163 153 146 141 141 143 143 138 127 116 124 136 137 138 141 142 132 115 113
176 182 203 185 186 189 194 201 205 207 86 116 104 86 24 341 326 310 296 286 279 268 258 245 224 210 195 173 164 171 174 157 129 108 100 121 135 140 141 142 138 141 134
112 160 202 187 193 200 207 217 225 236 270 5 338 305 295 290 287 289 287 281 272 265 258 249 240 231 221 197 185 196 200 184 156 133 114 115 145 149 144 145 148 147 147
77 86 17 207 209 220 223 228 232 238 248 262 271 278 282 284 282 283 287 293 287 270 261 254 248 239 228 211 203 212 217 200 177 158 140 160 183 166 159 156 156 154 153
60 49 10 243 234 238 240 239 239 240 241 248 254 258 266 272 278 285 292 298 299 279 259 253 249 244 233 222 216 225 228 211 188 175 179 195 221 191 175 170 164 158 157
32 19 359 310 282 271 265 259 254 253 252 254 256 256 265 270 270 271 285 295 298 288 261 252 249 252 248 232 225 234 238 221 190 182 201 220 226 215 189 174 165 162 162
25 16 6 351 332 310 290 278 269 264 263 264 264 264 268 275 279 270 268 281 288 287 275 259 256 259 261 252 246 249 249 233 180 189 216 239 229 220 198 179 172 168 166
28 22 15 7 0 348 326 303 288 278 271 273 273 273 273 268 275 278 266 267 276 281 277 265 258 261 269 274 277 282 286 270 194 197 218 242 235 218 200 186 179 174 170
28 24 17 11 6 0 352 341 324 307 294 286 284 280 284 280 274 282 281 273 274 275 274 266 255 253 260 274 289 300 305 298 220 205 221 234 242 225 206 194 186 182 178
28 24 16 12 10 4 2 4 1 352 340 325 308 291 284 286 281 284 292 288 281 275 270 264 257 248 245 251 269 286 297 309 253 226 229 241 246 237 218 205 195 190 186
25 23 17 14 12 8 10 11 10 9 3 357 344 330 311 290 280 278 278 281 281 276 269 263 259 251 243 242 249 261 284 276 262 240 233 248 255 252 232 214 203 198 194
18 18 20 17 14 11 10 8 6 7 3 3 360 353 342 328 305 286 267 269 275 279 277 267 259 254 248 244 262 273 262 267 263 249 247 257 261 263 246 222 209 204 201
11 17 17 17 15 15 11 8 7 2 1 0 2 359 352 345 337 326 308 289 284 283 277 268 262 247 235 227 238 246 249 257 254 252 251 259 263 265 255 232 217 209 206
17 15 10 13 12 12 10 8 10 5 2 0 357 359 358 353 349 340 326 307 291 279 276 267 250 243 241 238 236 243 248 246 248 249 247 252 258 261 261 243 229 217 210
17 11 5 6 8 3 3 2 8 4 3 358 358 0 1 356 350 341 332 323 308 289 269 264 253 248 245 243 237 236 245 247 247 245 249 247 248 252 257 253 238 227 217
14 9 3 4 5 358 357 353 353 354 353 355 360 359 0 358 351 344 338 332 323 311 287 264 255 250 248 242 244 238 241 246 247 245 241 246 245 247 251 252 244 233 226
9 5 3 1 1 355 351 347 346 342 345 350 352 354 358 357 352 347 339 337 335 323 305 285 265 247 247 242 245 245 242 241 244 245 242 237 240 242 244 249 245 235 230
6 2 360 359 355 351 347 341 339 338 340 342 343 348 353 353 351 346 337 332 331 325 312 293 271 254 244 238 241 242 237 238 242 242 240 235 232 236 240 243 244 236 228
1 357 355 355 354 350 345 341 337 335 337 338 339 345 347 347 347 341 329 326 327 323 317 305 286 252 247 243 241 242 235 233 237 240 239 236 231 229 230 239 239 233 225
359 357 355 354 354 350 347 343 340 338 338 334 335 341 340 338 339 336 324 327 327 321 319 315 300 276 248 241 247 245 237 234 233 234 238 239 232 227 225 228 233 233 228
0 358 356 354 354 355 354 350 345 341 338 334 334 338 333 333 333 328 327 325 323 317 310 306 301 288 265 234 234 254 258 241 235 235 234 235 235 228 220 220 219 217 223
354 352 352 351 350 355 353 346 340 332 331 331 333 332 332 332 328 327 326 322 317 314 310 307 305 291 274 222 209 219 262 289 252 232 229 230 234 227 222 219 213 213 211
353 353 349 348 349 354 353 349 343 337 337 340 337 334 334 330 325 322 319 317 313 310 305 305 300 288 279 258 215 191 196 223 252 265 232 235 240 231 228 221 216 214 211
349 347 347 348 349 354 355 350 347 344 339 335 329 324 324 322 318 317 315 312 309 306 302 301 300 291 279 266 239 224 214 177 178 237 263 249 255 241 237 230 223 217 210
346 346 349 348 349 351 350 347 343 339 335 329 326 322 320 314 308 307 306 304 303 301 297 296 296 290 277 263 243 215 209 207 178 173 222 247 263 258 255 245 235 224 210
346 352 351 347 347 348 346 345 342 339 336 332 332 329 328 323 317 313 311 304 298 295 294 293 290 286 278 266 252 224 192 177 181 175 186 203 224 254 266 257 234 219 204